Aérodrome :
LOGIN :

S'inscrire | Disclaimer

   EN    FR    IT 

 










Légende :    VFR   VFR Marginal   IFR   IFR Intensif   IFR Très Intensif
Visi : 
Plafond : 
>= 8 km
>= 3000ft
5 à 8 km
1000 à 3000 ft
1500m à 5 km
500 à 1000 ft
800 à 1500m
200 à 500 ft
< 800m
< 200 ft
Symboles :   Orages  Brouillard  Fortes neiges  Fortes précipitations  Vent > 20 kt
SIGMETs :   Divers  Orages  Givrage  Turbulence  Onde Orograph.  Cendres Volcan.







- Altitude de l'aérodrome : 1300 ft
- Code IATA : LIG
- Voir les cartes d'approche


LFBL - Limoges

DERNIER METAR :
  • 211400Z AUTO 36008KT 310V040 CAVOK 14/M01 Q1028 NOSIG

METARs EXPIRÉS :
  • 211330Z AUTO 03008KT 350V090 CAVOK 14/M02 Q1028 NOSIG
  • 211300Z AUTO 02006KT 320V070 CAVOK 14/M03 Q1029 NOSIG
  • 211230Z AUTO 35006KT 310V020 CAVOK 14/M03 Q1029 NOSIG
  • 211200Z AUTO VRB05KT CAVOK 13/M00 Q1029 NOSIG

TAF TAF LFBL
Valide du 21 à 12h jusqu'au 22 à 12h UTC


211100Z 2112/2212 06007KT CAVOK
BECMG 2208/2210 VRB02KT
ATIS : +33 5 55 48 40 37
Pas de NOTAMs connus pour ce terrain.



MET'MAP, la Météo Aéronautique d'un coup d'oeil ! - Copyright ORBIFLY Décembre 2007 - Disclaimer

ORBIFLY MET'MAP TEAM :

Programmation & Développement : Alexandra Zaïnal
Conception & Développement : Baudouin d'Aumeries
Co-Programmation & Développement : Marc-Olivier Méhu
Soutien technique & logistique : Manuel Goepfert

Contact : metmap@orbifly.com




SOURCES & CREDITS :

   NOAA